Le nostre stazioni meteo in Italia

Pubblicità
Il mio iltempo24.it
Geneve-Cointrin, Svizzera (6700): Temperatura & dewpoint: 22.05.2018 09:00:00 - 28.05.2018 09:00:00 (CEST)Geneve-Cointrin, Svizzera (6700): Temperatura 5cm: 22.05.2018 09:00:00 - 28.05.2018 09:00:00 (CEST)Geneve-Cointrin, Svizzera (6700): velocità del vento & gusts: 22.05.2018 09:00:00 - 28.05.2018 09:00:00 (CEST)Geneve-Cointrin, Svizzera (6700): direzione del vento: 22.05.2018 09:00:00 - 28.05.2018 09:00:00 (CEST)Geneve-Cointrin, Svizzera (6700): reduced air pressure: 22.05.2018 09:00:00 - 28.05.2018 09:00:00 (CEST)Geneve-Cointrin, Svizzera (6700): visibility: 22.05.2018 09:00:00 - 28.05.2018 09:00:00 (CEST)Geneve-Cointrin, Svizzera (6700): ore di luce: 22.05.2018 09:00:00 - 28.05.2018 09:00:00 (CEST)Geneve-Cointrin, Svizzera (6700): precipitazioni: 22.05.2018 09:00:00 - 28.05.2018 09:00:00 (CEST)
Data & Tempo tt [°C] td [°C] tt 5cm [°C] ff [km/h] ff [kn] fx [km/h] fx [kn] dd ppp [hPa] vv [km] sd [min] rr [mm]
28.05.2018 09:00:00 15,5 14,6 15,9 2 1 12 7 OSO 1018,0 - 0 0,1
28.05.2018 08:00:00 15,0 14,5 15,0 4 2 8 4 NNE 1017,2 12 0 0,4
28.05.2018 07:00:00 14,8 14,5 14,4 2 1 5 3 NO 1017,2 - 0 0,0
28.05.2018 06:00:00 14,1 14,0 13,5 1 1 5 3 NE 1017,3 - 0 0,1
28.05.2018 05:00:00 14,1 13,9 13,1 4 2 6 4 ONO 1017,7 - 0 0,0
28.05.2018 04:00:00 14,6 14,1 14,1 4 2 13 7 ONO 1018,0 - 0 0,0
28.05.2018 03:00:00 14,3 14,0 13,4 2 1 10 5 SE 1017,7 - 0 0,0
28.05.2018 02:00:00 13,9 13,8 12,3 4 2 9 5 NNO 1018,7 - 0 0,0
28.05.2018 01:00:00 14,2 14,1 11,9 4 2 7 4 NNO 1018,4 - 0 0,0
28.05.2018 00:00:00 14,5 14,2 12,6 4 2 8 4 NNE 1018,1 - 0 0,0
27.05.2018 23:00:00 15,3 14,8 14,3 5 3 13 7 NO 1018,8 20 0 0,0
27.05.2018 22:00:00 16,4 14,5 15,1 8 5 22 12 ESE 1018,3 - 0 0,2
27.05.2018 21:00:00 15,9 15,5 15,5 6 3 40 21 S 1018,4 - 0 2,4
27.05.2018 20:00:00 18,5 13,0 15,8 14 8 60 32 O 1018,5 20 0 1,1
27.05.2018 19:00:00 22,9 14,2 22,4 39 21 58 31 SSO 1015,6 - 0 0,0
27.05.2018 18:00:00 24,2 13,8 23,9 3 2 27 14 NNE 1013,7 - 0 0,0
27.05.2018 17:00:00 24,7 13,3 27,5 18 10 33 18 NE 1013,6 35 46 0,0
27.05.2018 16:00:00 24,5 14,3 29,8 21 11 35 19 NE 1014,0 - 60 0,0
27.05.2018 15:00:00 23,7 14,3 29,8 18 10 28 15 NE 1015,4 - 36 0,0
27.05.2018 14:00:00 22,5 13,1 25,6 14 7 19 11 NE 1016,2 40 11 0,0
27.05.2018 13:00:00 22,6 12,9 32,8 6 3 20 11 ENE 1016,7 - 22 0,0
27.05.2018 12:00:00 20,4 12,1 23,2 9 5 15 8 ENE 1017,7 - 15 0,0
27.05.2018 11:00:00 21,0 13,4 26,9 10 5 21 11 ENE 1018,0 35 39 0,0
27.05.2018 10:00:00 19,7 13,1 23,6 13 7 23 12 NE 1018,8 - 13 0,0
27.05.2018 09:00:00 18,0 14,3 19,3 11 6 24 13 NNE 1019,7 - 1 0,0
27.05.2018 08:00:00 17,2 13,3 16,6 7 4 21 11 NE 1019,2 30 0 0,0
27.05.2018 07:00:00 16,7 13,4 14,8 13 7 18 10 NNE 1018,6 - 0 0,0
27.05.2018 06:00:00 16,2 13,7 14,8 8 4 14 8 E 1019,1 - 0 0,0
27.05.2018 05:00:00 16,7 13,1 15,5 13 7 18 10 SO 1019,3 - 0 0,0
27.05.2018 04:00:00 15,3 13,2 13,8 5 3 8 4 O 1018,1 - 0 0,0
27.05.2018 03:00:00 14,9 13,2 12,8 4 2 8 4 NO 1018,4 - 0 0,0
27.05.2018 02:00:00 16,8 13,3 14,4 5 3 15 8 NNO 1018,5 - 0 0,0
27.05.2018 01:00:00 17,6 13,0 13,8 5 3 15 8 N 1018,6 - 0 0,0
27.05.2018 00:00:00 19,4 13,0 16,6 8 5 22 12 NNE 1018,3 - 0 0,0
26.05.2018 23:00:00 17,9 13,9 15,2 3 2 - - NNE 1018,7 20 0 0,1
26.05.2018 22:00:00 20,3 13,4 18,8 19 10 39 21 ENE 1018,2 - 0 0,0
26.05.2018 21:00:00 20,3 14,0 18,4 5 3 27 15 E 1017,8 - 0 0,0
26.05.2018 20:00:00 22,2 14,0 21,9 12 7 26 14 NNE 1017,2 30 26 0,0
26.05.2018 19:00:00 23,6 13,2 25,1 9 5 20 11 NE 1017,2 - 46 0,0
26.05.2018 18:00:00 23,7 14,2 26,1 9 5 20 11 NNE 1017,0 - 4 0,0
26.05.2018 17:00:00 23,1 14,4 25,8 11 6 23 13 NNE 1017,4 50 1 0,0
26.05.2018 16:00:00 23,5 14,0 27,9 12 6 24 13 NE 1017,5 - 18 0,0
26.05.2018 15:00:00 24,1 12,2 26,8 6 4 16 9 E 1017,8 - 38 0,0
26.05.2018 14:00:00 23,4 12,6 31,6 6 4 14 7 ENE 1018,5 50 59 0,0
26.05.2018 13:00:00 21,8 13,8 28,1 1 1 7 4 SSO 1019,4 - 3 0,0
26.05.2018 12:00:00 20,6 14,5 - 5 3 8 4 OSO 1019,9 - 0 0,0
26.05.2018 11:00:00 21,1 13,1 25,7 3 2 9 5 SO 1019,7 50 12 0,0
26.05.2018 10:00:00 19,6 11,1 21,9 4 2 11 6 SO 1019,1 - 3 0,0
26.05.2018 09:00:00 17,5 15,3 16,5 8 4 14 8 O 1019,0 - 14 0,2
26.05.2018 08:00:00 17,1 13,5 19,0 2 1 6 3 NNE 1017,8 50 40 0,0
26.05.2018 07:00:00 14,3 12,1 12,5 3 1 6 3 N 1017,8 - 0 0,0
26.05.2018 06:00:00 13,5 12,2 11,6 1 0 4 2 NNO 1017,7 - 0 0,0
26.05.2018 05:00:00 14,1 12,3 11,5 1 1 4 2 NO 1017,7 - 0 0,0
26.05.2018 04:00:00 14,0 12,2 11,6 1 0 5 3 NNO 1017,8 - 0 0,0
26.05.2018 03:00:00 14,6 12,7 - 2 1 6 4 NE 1017,5 - 0 0,0
26.05.2018 02:00:00 15,1 12,6 12,1 2 1 5 3 N 1017,2 - 0 0,0
26.05.2018 01:00:00 15,6 12,9 12,3 1 1 4 2 NNE 1016,9 - 0 0,0
26.05.2018 00:00:00 16,3 13,1 13,3 3 1 5 3 ONO 1016,8 - 0 0,0
25.05.2018 23:00:00 17,5 13,9 14,2 2 1 6 3 SE 1016,4 60 0 0,0
25.05.2018 22:00:00 20,2 14,3 - 4 2 10 6 NO 1015,8 - 0 0,0
25.05.2018 21:00:00 20,9 14,7 - 3 1 10 6 ENE 1015,1 - 0 0,0
25.05.2018 20:00:00 22,6 14,2 20,9 5 3 11 6 N 1014,9 50 0 0,0
25.05.2018 19:00:00 23,6 12,7 23,8 6 3 20 11 NNE 1014,5 - 0 0,0
25.05.2018 18:00:00 24,0 13,3 25,0 9 5 25 14 N 1014,6 - 39 0,0
25.05.2018 17:00:00 26,2 10,7 33,5 8 4 18 10 NNE 1014,3 60 59 0,0
25.05.2018 16:00:00 24,8 9,5 29,2 10 5 18 10 E 1015,0 - 60 0,0
25.05.2018 15:00:00 25,6 10,2 31,8 8 4 24 13 ENE 1015,0 - 60 0,0
25.05.2018 14:00:00 23,6 11,2 32,0 6 3 16 8 ENE 1015,8 65 54 0,0
25.05.2018 13:00:00 21,7 11,4 - 9 5 18 10 NE 1016,3 - 52 0,0
25.05.2018 12:00:00 22,0 12,9 29,7 12 6 21 12 NE 1016,3 - 60 0,0
25.05.2018 11:00:00 20,4 12,0 27,5 12 7 21 11 ENE 1016,9 55 60 0,0
25.05.2018 10:00:00 19,2 11,9 26,2 7 4 16 9 E 1017,4 - 60 0,0
25.05.2018 09:00:00 17,8 10,5 25,5 2 1 11 6 NE 1017,8 - 60 0,0
25.05.2018 08:00:00 15,7 11,7 18,7 3 1 7 4 NNO 1018,0 45 36 0,0
25.05.2018 07:00:00 14,2 11,2 12,4 1 1 4 2 N 1018,0 - 0 0,0
25.05.2018 06:00:00 12,4 10,3 10,1 2 1 5 3 OSO 1018,0 - 0 0,0
25.05.2018 05:00:00 12,6 10,6 9,5 1 1 4 2 NNO 1018,1 - 0 0,0
25.05.2018 04:00:00 13,4 11,0 10,1 3 1 7 4 NNO 1017,9 - 0 0,0
25.05.2018 03:00:00 14,9 11,5 - 4 2 7 4 ONO 1017,6 - 0 0,0
25.05.2018 02:00:00 16,3 11,3 12,1 5 3 10 5 NNO 1017,5 - 0 0,0
25.05.2018 01:00:00 17,0 11,3 14,6 8 4 10 6 NNE 1017,5 - 0 0,0
25.05.2018 00:00:00 17,8 11,4 15,6 3 1 8 4 NNE 1017,4 - 0 0,0
24.05.2018 23:00:00 18,7 11,7 15,8 4 2 6 4 NNE 1017,1 40 0 0,0
24.05.2018 22:00:00 18,3 11,9 - 5 3 10 5 ENE 1016,8 - 0 0,0
24.05.2018 21:00:00 21,1 10,1 - 5 3 11 6 ONO 1015,4 - 30 0,0
24.05.2018 20:00:00 22,6 9,4 21,4 8 4 16 9 O 1014,8 40 50 0,0
24.05.2018 19:00:00 24,9 6,7 26,7 10 5 25 13 OSO 1014,2 - 60 0,0
24.05.2018 18:00:00 25,4 8,3 28,5 13 7 24 13 SO 1014,3 - 60 0,0
24.05.2018 17:00:00 24,7 7,9 30,0 15 8 27 15 SSO 1014,7 40 60 0,0
24.05.2018 16:00:00 24,8 9,2 30,7 13 7 30 16 SSO 1015,1 - 60 0,0
24.05.2018 15:00:00 24,0 9,5 29,8 12 6 29 16 SSO 1015,6 - 60 0,0
24.05.2018 14:00:00 23,3 11,1 31,3 7 4 23 12 SO 1016,3 - 60 0,0
24.05.2018 13:00:00 22,3 11,7 29,0 10 6 20 11 SO 1017,0 - 60 0,0
24.05.2018 12:00:00 19,9 13,0 29,7 6 3 16 8 NE 1018,0 - 60 0,0
24.05.2018 11:00:00 18,7 12,8 28,5 3 2 11 6 SO 1018,5 25 60 0,0
24.05.2018 10:00:00 17,1 11,2 26,0 6 3 14 8 NE 1019,0 - 60 0,0
24.05.2018 09:00:00 14,4 12,0 22,3 3 1 15 8 E 1019,7 - 60 0,0
24.05.2018 08:00:00 13,4 11,6 16,0 2 1 8 4 SO 1019,3 14 60 0,0
24.05.2018 07:00:00 10,4 10,1 10,2 4 2 6 4 ONO 1020,0 - 8 0,0
24.05.2018 06:00:00 10,1 9,4 8,1 5 3 8 5 O 1020,0 - 0 0,0
24.05.2018 05:00:00 10,3 9,6 7,7 4 2 5 3 OSO 1020,2 - 0 0,0
24.05.2018 04:00:00 10,5 10,1 8,4 3 1 6 4 SSO 1020,3 - 0 0,0
24.05.2018 03:00:00 10,5 10,2 - 3 2 9 5 O 1020,0 - 0 0,0
24.05.2018 02:00:00 10,9 10,7 8,3 3 2 6 3 OSO 1019,9 - 0 0,0
24.05.2018 01:00:00 12,1 11,8 8,7 1 0 4 2 NO 1019,5 - 0 0,0
24.05.2018 00:00:00 12,3 12,0 9,6 3 2 8 4 N 1019,6 - 0 0,0
23.05.2018 23:00:00 13,3 12,6 10,8 5 3 9 5 ONO 1019,2 50 0 0,0
23.05.2018 22:00:00 13,8 13,3 - 1 1 10 6 ONO 1018,7 - 0 0,0
23.05.2018 21:00:00 16,0 13,2 - 7 4 10 5 O 1017,9 - 0 0,0
23.05.2018 20:00:00 17,8 13,5 17,9 6 3 18 10 OSO 1017,0 40 0 0,0
23.05.2018 19:00:00 18,7 14,1 21,7 11 6 19 10 OSO 1016,9 - 24 0,0
23.05.2018 18:00:00 18,0 13,9 22,3 8 4 14 7 OSO 1017,0 - 8 0,0
23.05.2018 17:00:00 17,6 14,5 19,6 7 4 11 6 O 1017,2 25 0 0,0
23.05.2018 16:00:00 16,7 14,2 17,8 4 2 8 5 OSO 1017,4 - 0 0,4
23.05.2018 15:00:00 16,9 14,1 20,1 3 2 8 4 ONO 1017,7 - 0 0,0
23.05.2018 14:00:00 16,2 14,1 18,0 4 2 20 11 N 1017,9 25 0 0,1
23.05.2018 13:00:00 17,2 13,7 20,3 5 3 14 8 E 1017,5 - 0 0,2
23.05.2018 12:00:00 16,1 14,1 18,3 3 2 9 5 NNE 1017,8 - 0 1,1
23.05.2018 11:00:00 16,0 13,1 17,8 2 1 7 4 NNO 1017,7 30 0 0,0
23.05.2018 10:00:00 15,9 13,4 17,7 1 1 8 5 O 1017,5 - 0 0,0
23.05.2018 09:00:00 15,7 13,6 16,3 7 4 11 6 O 1017,2 - 0 0,0
23.05.2018 08:00:00 14,9 13,1 14,5 9 5 12 7 SO 1017,0 20 0 0,0
23.05.2018 07:00:00 14,4 13,1 13,6 6 3 8 5 OSO 1016,8 - 0 0,0
23.05.2018 06:00:00 14,2 13,0 13,0 3 2 9 5 O 1016,4 - 0 0,0
23.05.2018 05:00:00 13,8 13,4 13,2 3 1 5 3 NO 1016,3 - 0 0,0
23.05.2018 04:00:00 13,9 13,5 13,3 3 2 6 3 NNE 1016,0 - 0 0,0
23.05.2018 03:00:00 14,1 13,7 - 4 2 6 3 ONO 1016,2 - 0 0,0
23.05.2018 02:00:00 14,1 13,6 13,0 5 3 10 6 SSO 1016,3 - 0 0,0
23.05.2018 01:00:00 14,4 13,5 13,5 6 3 10 5 ONO 1016,3 - 0 0,0
23.05.2018 00:00:00 14,6 14,0 13,6 6 3 10 5 OSO 1015,9 - 0 0,0
22.05.2018 23:00:00 14,8 14,4 14,0 3 2 12 6 OSO 1015,7 25 0 0,1
22.05.2018 22:00:00 15,0 14,6 - 3 2 9 5 NNE 1015,2 - 0 0,6
22.05.2018 21:00:00 15,6 14,5 - 4 2 9 5 NE 1014,3 - 0 0,2
22.05.2018 20:00:00 16,3 14,7 15,6 6 3 21 11 ENE 1013,4 23 0 0,5
22.05.2018 19:00:00 17,7 13,2 16,6 3 2 29 16 NNO 1012,3 - 0 0,2
22.05.2018 18:00:00 19,9 9,5 20,2 16 9 28 15 S 1011,2 - 0 0,0
22.05.2018 17:00:00 22,0 10,9 22,4 6 3 18 10 ONO 1010,1 35 0 0,0
22.05.2018 16:00:00 23,0 9,1 24,9 8 4 22 12 NNE 1009,7 - 46 0,0
22.05.2018 15:00:00 23,0 10,0 30,2 11 6 25 13 E 1009,9 - 60 0,0
22.05.2018 14:00:00 23,0 9,8 30,5 14 7 27 14 NE 1010,4 70 60 0,0
22.05.2018 13:00:00 22,2 10,8 30,6 9 5 19 10 NNE 1011,0 - 60 0,0
22.05.2018 12:00:00 20,2 11,7 30,5 5 3 13 7 NE 1011,7 - 60 0,0
22.05.2018 11:00:00 19,0 11,1 27,8 6 4 15 8 E 1012,0 70 60 0,0
22.05.2018 10:00:00 17,8 11,8 25,9 8 5 13 7 E 1012,2 - 60 0,0
22.05.2018 09:00:00 16,7 11,9 24,4 3 2 10 5 N 1012,5 - 60 0,0

tt = Temperatura
td = dewpoint
tt 5cm = Temperatura 5cm
ff = velocità del vento
fx = gusts
dd = direzione del vento
ppp = reduced air pressure
vv = visibility
sd = ore di luce
rr = precipitazioni

Stazioni seguenti

WeatherPro
AMSI
MeteoEarth